Valley City, ND

4:11 PM CST on February 21, 2018 (GMT -0600)
Valley City

Weather History for KBAC - April, 2014

Change the Weather History Date:

Tuesday, April 29, 2014

  Actual Average (KJMS) Record (KJMS)
Temperature  
Mean Temperature 41 °F -  
Max Temperature 50 °F 60 °F 92 °F (1934)
Min Temperature 32 °F 37 °F 14 °F (1958)
Degree Days  
Heating Degree Days 24    
Moisture  
Dew Point 33 °F    
Average Humidity 73    
Maximum Humidity 100    
Minimum Humidity 46    
Precipitation  
Precipitation 0.05 in - - ()
Sea Level Pressure  
Sea Level Pressure 29.96 in    
Wind  
Wind Speed 19 mph (NNE)    
Max Wind Speed 29 mph    
Max Gust Speed 38 mph    
Visibility 9 miles    
Events Rain , Snow    
Averages and records for this station are not official NWS values.
T = Trace of Precipitation, MM = Missing Value Source: NWS Daily Summary

Daily Weather History Graph

Daily Weather History Graph

Search for Another Location

Airport or City:

Trip Planner

Search our weather history database for the weather conditions in past years. The results will help you decide how hot, cold, wet, or windy it might be!

Date:

Astronomy

Apr. 29, 2014 Rise Set
Actual Time 6:19 AM CDT 8:39 PM CDT
Civil Twilight 5:46 AM CDT 9:13 PM CDT
Nautical Twilight 5:04 AM CDT 9:55 PM CDT
Astronomical Twilight 4:17 AM CDT 10:43 PM CDT
Moon 6:39 AM CDT (4/29) 9:22 PM CDT (4/29)
Length of Visible Light 15h 27m
Length of Day
14h 20m
New Moon, 0% of the Moon is Illuminated
Apr 29
New Moon
May 6
First Quarter
May 14
Full
May 21
Last Quarter
May 28
New

Hourly Weather History & Observations

Time (CDT) Temp. Windchill Dew Point Humidity Pressure Visibility Wind Dir Wind Speed Gust Speed Precip Events Conditions
12:15 AM 35.6 °F 25.5 °F 35.6 °F 100% 29.89 in 5.0 mi ENE 17.3 mph 25.3 mph N/A Rain Light Rain
12:35 AM 35.6 °F 25.5 °F 35.6 °F 100% 29.89 in 3.0 mi ENE 17.3 mph 23.0 mph N/A Rain Light Rain
12:55 AM 35.6 °F 27.1 °F 35.6 °F 100% 29.89 in 5.0 mi NE 12.7 mph - 0.01 in Rain Light Rain
1:15 AM 33.8 °F 24.3 °F 33.8 °F 100% 29.89 in 7.0 mi NE 13.8 mph 21.9 mph N/A Rain Light Rain
1:35 AM 33.8 °F 24.3 °F 33.8 °F 100% 29.90 in 8.0 mi NE 13.8 mph 21.9 mph N/A Rain Light Rain
1:55 AM 33.8 °F 22.8 °F 33.8 °F 100% 29.91 in 10.0 mi NE 18.4 mph 24.2 mph N/A Rain Light Rain
2:15 AM 33.8 °F 23.5 °F 33.8 °F 100% 29.90 in 8.0 mi NE 16.1 mph 24.2 mph N/A Rain Light Rain
2:35 AM 33.8 °F 24.3 °F 33.8 °F 100% 29.90 in 10.0 mi NE 13.8 mph - N/A Rain Light Rain
2:55 AM 33.8 °F 23.5 °F 33.8 °F 100% 29.91 in 9.0 mi NE 16.1 mph 20.7 mph N/A Rain Light Rain
3:15 AM 33.8 °F 22.5 °F 33.8 °F 100% 29.91 in 8.0 mi NE 19.6 mph 24.2 mph N/A Snow Light Snow
3:35 AM 33.8 °F 22.5 °F 33.8 °F 100% 29.92 in 7.0 mi NE 19.6 mph 26.5 mph 0.01 in Snow Light Snow
4:15 AM 33.8 °F 22.8 °F 33.8 °F 100% 29.92 in 7.0 mi ENE 18.4 mph 24.2 mph N/A Rain Light Rain
4:35 AM 33.8 °F 21.9 °F 33.8 °F 100% 29.93 in 5.0 mi East 21.9 mph 31.1 mph 0.01 in Snow Light Snow
4:55 AM 33.8 °F 22.8 °F 33.8 °F 100% 29.94 in 5.0 mi ENE 18.4 mph 25.3 mph 0.01 in Snow Light Snow
5:15 AM 32.0 °F 23.0 °F 32.0 °F 100% 29.94 in 4.0 mi ENE 11.5 mph - 0.01 in Snow Light Snow
5:35 AM 32.0 °F 24.8 °F 32.0 °F 100% 29.94 in 9.0 mi NE 8.1 mph - 0.02 in Rain Light Rain
5:55 AM 33.8 °F 27.0 °F 33.8 °F 100% 29.94 in 10.0 mi NNE 8.1 mph - 0.02 in   Overcast
6:15 AM 33.8 °F 25.3 °F 33.8 °F 100% 29.94 in 10.0 mi North 11.5 mph - N/A   Overcast
6:35 AM 35.6 °F 26.6 °F 35.6 °F 100% 29.93 in 10.0 mi North 13.8 mph - N/A   Overcast
7:15 AM 35.6 °F 24.0 °F 32.0 °F 87% 29.93 in 10.0 mi NE 23.0 mph 28.8 mph N/A Snow Light Snow
7:55 AM 35.6 °F 25.2 °F 32.0 °F 87% 29.95 in 10.0 mi NNE 18.4 mph 28.8 mph N/A Snow Light Snow
8:15 AM 35.6 °F 24.8 °F 32.0 °F 87% 29.96 in 10.0 mi NNE 19.6 mph 25.3 mph N/A Snow Light Snow
8:35 AM 37.4 °F 27.2 °F 32.0 °F 81% 29.96 in 10.0 mi NE 19.6 mph 31.1 mph N/A Snow Light Snow
8:55 AM 37.4 °F 26.9 °F 32.0 °F 81% 29.97 in 10.0 mi NE 20.7 mph 28.8 mph N/A Snow Light Snow
9:15 AM 39.2 °F 28.7 °F 32.0 °F 75% 29.97 in 10.0 mi NE 23.0 mph 28.8 mph N/A   Clear
9:35 AM 39.2 °F 28.3 °F 32.0 °F 75% 29.98 in 10.0 mi NE 25.3 mph 29.9 mph N/A   Clear
9:55 AM 39.2 °F 28.7 °F 32.0 °F 75% 29.98 in 10.0 mi NNE 23.0 mph 26.5 mph N/A   Clear
10:15 AM 41.0 °F 30.9 °F 32.0 °F 70% 29.98 in 10.0 mi NNE 24.2 mph 32.2 mph N/A   Clear
10:35 AM 41.0 °F 31.1 °F 32.0 °F 70% 29.98 in 10.0 mi NNE 23.0 mph 29.9 mph N/A   Clear
10:55 AM 41.0 °F 31.4 °F 32.0 °F 70% 29.98 in 10.0 mi NNE 21.9 mph 31.1 mph N/A   Clear
11:15 AM 42.8 °F 34.0 °F 33.8 °F 70% 29.98 in 10.0 mi NNE 20.7 mph 29.9 mph N/A   Clear
11:35 AM 44.6 °F 36.1 °F 33.8 °F 66% 29.98 in 10.0 mi NNE 21.9 mph 26.5 mph N/A   Clear
11:55 AM 44.6 °F 36.1 °F 35.6 °F 71% 29.98 in 10.0 mi NNE 21.9 mph 28.8 mph N/A   Clear
12:15 PM 46.4 °F 38.3 °F 35.6 °F 66% 29.97 in 10.0 mi North 23.0 mph 29.9 mph N/A   Clear
12:35 PM 46.4 °F 38.1 °F 33.8 °F 62% 29.97 in 10.0 mi NNE 24.2 mph 29.9 mph N/A   Clear
12:55 PM 48.2 °F - 32.0 °F 54% 29.97 in 10.0 mi NNE 26.5 mph 33.4 mph N/A   Clear
1:15 PM 48.2 °F - 33.8 °F 58% 29.97 in 10.0 mi NNE 26.5 mph 35.7 mph N/A   Clear
1:35 PM 48.2 °F - 32.0 °F 54% 29.96 in 10.0 mi NNE 28.8 mph 38.0 mph N/A   Clear
1:55 PM 50.0 °F - 33.8 °F 54% 29.96 in 10.0 mi NNE 25.3 mph 35.7 mph N/A   Clear
2:15 PM 50.0 °F - 33.8 °F 54% 29.96 in 10.0 mi NNE 26.5 mph 36.8 mph N/A   Clear
2:35 PM 50.0 °F - 33.8 °F 54% 29.95 in 10.0 mi NNE 26.5 mph 34.5 mph N/A   Clear
2:55 PM 50.0 °F - 33.8 °F 54% 29.96 in 10.0 mi NNE 24.2 mph 38.0 mph N/A   Partly Cloudy
3:15 PM 50.0 °F - 33.8 °F 54% 29.96 in 10.0 mi NNE 26.5 mph 35.7 mph N/A   Scattered Clouds
3:35 PM 50.0 °F - 35.6 °F 58% 29.95 in 10.0 mi NNE 27.6 mph 33.4 mph N/A   Mostly Cloudy
3:55 PM 50.0 °F - 33.8 °F 54% 29.95 in 10.0 mi North 26.5 mph 32.2 mph N/A   Mostly Cloudy
4:15 PM 50.0 °F - 33.8 °F 54% 29.94 in 10.0 mi North 25.3 mph 35.7 mph N/A   Mostly Cloudy
4:35 PM 50.0 °F - 33.8 °F 54% 29.95 in 10.0 mi North 23.0 mph 34.5 mph N/A   Mostly Cloudy
4:55 PM 50.0 °F - 33.8 °F 54% 29.95 in 10.0 mi North 24.2 mph 36.8 mph N/A   Mostly Cloudy
5:15 PM 50.0 °F - 33.8 °F 54% 29.96 in 10.0 mi North 26.5 mph 33.4 mph N/A   Mostly Cloudy
5:35 PM 50.0 °F - 33.8 °F 54% 29.97 in 10.0 mi North 19.6 mph 33.4 mph N/A   Mostly Cloudy
5:55 PM 50.0 °F - 32.0 °F 50% 29.97 in 10.0 mi North 23.0 mph 33.4 mph N/A   Mostly Cloudy
6:15 PM 50.0 °F - 32.0 °F 50% 29.98 in 10.0 mi North 23.0 mph 33.4 mph N/A   Overcast
6:35 PM 50.0 °F - 32.0 °F 50% 29.99 in 10.0 mi North 21.9 mph 34.5 mph N/A   Overcast
6:55 PM 50.0 °F - 32.0 °F 50% 29.99 in 10.0 mi North 24.2 mph 34.5 mph N/A   Overcast
7:15 PM 50.0 °F - 32.0 °F 50% 29.99 in 10.0 mi North 19.6 mph 34.5 mph N/A   Overcast
7:35 PM 50.0 °F - 32.0 °F 50% 29.99 in 10.0 mi North 28.8 mph 36.8 mph N/A   Overcast
7:55 PM 50.0 °F - 30.2 °F 47% 29.99 in 10.0 mi North 26.5 mph 34.5 mph N/A   Overcast
8:15 PM 48.2 °F - 28.4 °F 46% 29.99 in 10.0 mi North 24.2 mph 31.1 mph N/A   Overcast
8:35 PM 48.2 °F - 28.4 °F 46% 29.99 in 10.0 mi North 19.6 mph 26.5 mph N/A   Mostly Cloudy
8:55 PM 46.4 °F 40.1 °F 30.2 °F 53% 30.00 in 10.0 mi NNE 15.0 mph 23.0 mph N/A   Mostly Cloudy
9:15 PM 44.6 °F 38.4 °F 32.0 °F 61% 30.00 in 10.0 mi NNE 12.7 mph - N/A   Partly Cloudy
9:35 PM 42.8 °F 38.6 °F 32.0 °F 66% 30.01 in 10.0 mi NNE 6.9 mph - N/A   Clear
9:55 PM 41.0 °F 36.4 °F 32.0 °F 70% 30.01 in 10.0 mi NNE 6.9 mph - N/A   Clear
10:15 PM 41.0 °F 34.7 °F 32.0 °F 70% 30.01 in 10.0 mi North 10.4 mph - N/A   Clear
10:35 PM 41.0 °F 33.9 °F 32.0 °F 70% 30.00 in 10.0 mi North 12.7 mph - N/A   Clear
10:55 PM 41.0 °F 33.5 °F 32.0 °F 70% 30.00 in 10.0 mi North 13.8 mph - N/A   Clear
11:15 PM 39.2 °F 31.2 °F 32.0 °F 75% 30.00 in 10.0 mi North 13.8 mph - N/A   Clear
11:35 PM 39.2 °F 31.6 °F 32.0 °F 75% 30.00 in 10.0 mi North 12.7 mph - N/A   Clear
11:55 PM 37.4 °F 29.8 °F 32.0 °F 81% 30.00 in 10.0 mi North 11.5 mph - N/A   Clear